CAPE
0 268 608 289 130 134 191 689 698 876 826 668 759 929 852 1058 983 1326 1371 1420 1225 1156 1301 1298 1571 1410 1564 1592 1353 1521 1392 1646 1884 2016 2085 2208 2287 2207 2077 1916 1843 2059 2258
1 433 508 220 105 272 332 674 680 569 769 707 920 655 931 1334 1448 1254 1343 987 1133 1268 1532 1836 1526 1486 1621 1722 1611 1843 2034 1949 1759 1983 2098 2045 2138 2216 2040 2164 1864 2129 2217
0 293 334 140 62 162 384 629 450 366 458 719 326 717 1354 1579 1376 1504 1522 1582 1466 1483 1423 1484 1449 1400 1468 1534 1582 1585 1782 1821 1942 2084 1871 1551 1867 2135 2092 1957 2038 2088 2039
10 74 170 41 36 6 368 271 372 280 275 632 1573 1687 1542 1621 1662 1631 1495 1615 1606 1422 1267 1570 1480 1203 1243 1450 1236 1510 1588 1957 1789 1430 820 1207 1580 2050 1982 2032 2019 2085 2095
27 25 32 98 158 0 94 72 177 312 380 846 1343 1406 1599 1643 1455 1583 1576 1574 1684 1453 1599 1496 1462 1406 1361 1489 1469 1545 1443 669 641 470 559 809 608 1298 1620 1788 1864 1875 1829
4 15 93 38 81 72 49 274 140 289 287 577 576 1160 729 616 605 764 1084 1632 1600 1506 1417 1351 1305 1267 931 1531 1450 1467 1417 1403 921 1184 1421 1578 1750 1815 1770 1352 1721 1499 1348
1 40 51 134 82 49 76 13 1 0 152 355 456 800 950 1069 614 643 1396 1507 1586 1527 1511 1188 957 1079 1316 1487 1552 1603 1722 1087 946 1288 1527 1652 1516 1681 1429 1154 1417 1528 1311
22 32 31 90 164 82 33 1 1 0 80 257 889 1276 1340 1432 1567 1523 1638 1484 1488 1481 1430 818 1079 1218 1143 941 884 1310 1484 992 1066 1081 1212 1307 1282 1928 1984 1664 1206 1541 1732
18 60 137 78 174 126 134 21 2 123 141 299 860 1029 1483 1094 740 514 516 875 1170 1301 1352 1261 988 727 551 517 476 1194 1560 1214 1193 780 547 1057 1105 1040 1023 1021 1149 1118 954
221 124 114 110 115 73 165 197 70 72 278 291 915 1306 1657 1217 1574 1208 701 386 338 446 534 473 426 347 327 363 575 621 1161 1220 1088 986 708 797 1581 1686 1334 662 530 355 299
287 302 240 221 101 145 161 896 1003 730 367 859 1551 1436 1410 1490 984 463 1093 942 848 683 553 483 393 245 272 155 400 772 455 1131 996 960 617 496 1041 1027 690 587 675 691 796
199 358 507 502 331 400 997 1326 1425 1419 939 1591 1425 1344 1131 1039 781 713 1143 1489 1337 1196 971 901 706 568 533 339 320 312 324 892 959 731 486 54 269 664 778 835 689 755 987
180 358 619 840 829 1040 1331 1279 1523 1365 1394 1298 1109 1034 887 563 615 460 516 740 758 428 524 565 623 618 833 713 638 632 1056 1466 822 543 341 4 162 763 1020 908 798 906 845
144 300 534 908 853 1015 1244 1316 1075 1214 911 578 787 762 639 469 505 520 259 261 392 469 657 681 672 741 798 912 925 1021 1067 1112 621 387 280 15 192 694 1141 1049 973 1075 709
157 204 436 613 717 750 760 1266 883 715 601 594 672 720 742 689 412 458 245 269 348 443 717 906 926 926 929 910 522 704 998 1022 568 200 119 53 204 458 1021 1230 1271 1215 1285
137 157 372 618 507 674 582 644 516 694 673 652 700 725 605 627 595 447 250 579 864 969 969 760 923 957 1027 964 134 237 806 822 460 152 121 129 195 392 565 986 1375 1612 1945
59 124 298 621 541 541 603 507 602 653 626 743 773 548 411 740 556 252 381 1219 1050 1130 851 1533 1406 1287 1315 347 139 180 590 575 417 182 152 162 207 289 638 888 1087 1153 1309
72 104 387 306 575 603 576 445 516 494 591 659 646 535 621 715 515 342 678 1230 1129 885 946 1315 1073 1585 982 208 167 228 285 404 431 192 153 136 201 219 277 325 669 964 1226
112 158 245 618 731 751 534 389 445 475 521 571 576 577 648 660 590 692 1152 1378 973 775 851 1038 965 809 1105 322 194 173 233 217 234 216 378 327 305 365 620 709 401 838 888
141 195 177 486 723 804 485 371 300 448 441 493 674 619 847 925 660 943 1110 1147 950 782 484 827 656 631 1003 700 319 284 421 356 345 411 476 538 727 817 746 577 384 253 12
119 96 182 272 566 594 454 381 526 508 601 488 709 686 965 1108 1281 1296 885 864 814 694 462 463 689 307 682 863 694 641 504 389 382 408 449 394 322 214 164 109 236 219 93
103 64 138 301 533 412 527 385 403 675 656 692 823 777 965 961 1234 1277 1023 835 592 381 268 380 522 397 277 618 698 701 682 694 650 450 332 289 285 191 130 192 162 369 510
57 82 120 244 321 397 383 349 349 676 605 653 750 783 865 894 1106 1305 1245 834 376 199 280 273 337 201 246 214 304 438 390 284 214 238 218 150 160 204 513 416 94 158 578
35 138 137 163 296 389 361 378 255 596 669 733 731 797 779 933 1159 1343 1391 968 563 319 178 314 647 246 208 253 217 113 164 179 256 153 468 234 388 546 613 543 204 135 403
123 152 224 145 228 467 393 402 387 625 758 952 690 612 683 964 1319 1251 1310 1120 670 503 262 887 38 377 489 569 83 94 65 172 280 564 223 315 451 679 664 471 652 505 269
215 240 298 259 227 484 484 450 606 731 770 692 647 501 730 967 1150 1225 1404 1363 946 749 83 444 680 936 660 777 369 156 627 792 816 819 722 499 407 415 455 521 820 617 558
CIN
0 -14 0 -20 -29 -34 -19 -1 -2 0 -4 -6 -9 -7 -11 -6 -8 0 0 0 -3 -4 -3 -3 -1 -2 0 0 -1 -1 -8 -4 0 0 0 0 0 0 -3 -10 -1 -1 -1
-62 -5 -1 -61 -14 -15 -11 -2 -2 -12 -3 -3 -3 -6 -5 -2 0 0 -3 -1 -1 0 0 0 0 0 0 0 0 0 0 -2 0 0 0 0 -1 -3 -8 -4 -16 -1 0
-9 -8 -1 -26 -49 -10 -6 -3 -6 -7 -9 -4 -15 -3 -1 0 0 0 0 0 -1 0 -1 0 0 0 0 0 0 0 0 0 0 0 -1 -1 -1 0 -2 -6 -1 0 -2
-65 -41 -8 -51 -33 -49 -5 -10 -8 -10 -10 -6 -1 0 0 0 0 0 0 0 0 -1 -1 0 0 0 0 0 0 0 -1 0 -5 -12 -10 -2 -1 0 0 0 0 0 0
-13 -32 -24 -6 -7 0 -9 -20 -18 -9 -11 -4 -2 -1 0 0 -2 0 0 0 0 0 0 0 0 0 0 0 0 -1 -3 -49 -64 -67 -58 -45 -40 -12 0 0 0 0 -2
-16 -5 -4 -14 -6 -7 -7 -11 -33 -21 -28 -3 -7 -2 -12 -10 -15 -4 -1 0 0 0 0 0 0 -2 -6 0 0 -2 -7 -14 -39 -17 -6 -2 -1 -3 -2 -24 -1 -9 -14
-11 -4 -13 -9 -13 -10 -16 -40 -75 0 -45 -8 -10 -7 -5 -2 -12 -7 0 0 0 0 -1 -1 -7 -4 -4 -5 -5 -6 -5 -28 -27 -13 -1 0 -1 -1 -9 -28 -15 -8 -19
-19 -14 -13 -16 -7 -9 -18 -13 -24 0 -62 -9 -2 -3 0 -1 0 0 0 0 0 0 0 -14 -3 -4 -11 -21 -20 -11 -13 -27 -12 -22 -15 -5 -12 0 0 0 -23 -4 -1
-25 -23 -13 -7 -1 -12 -16 -27 -24 -29 -32 -19 -6 -7 0 -3 -11 -34 -31 -7 -1 0 -2 -7 -9 -25 -41 -47 -45 -21 -15 -22 -8 -50 -86 -24 -36 -37 -41 -43 -38 -46 -65
-23 -31 -31 -21 -9 -16 -8 -22 -35 -32 -3 -6 -1 -1 0 0 0 0 -13 -37 -40 -35 -35 -34 -37 -54 -59 -64 -50 -48 -35 -31 -10 -48 -84 -54 -9 -1 -19 -98 -128 -158 -173
-24 -37 -42 -23 -8 -8 -9 -1 -1 0 -13 -1 -1 -4 -3 0 0 -13 -1 -5 -15 -38 -44 -48 -49 -64 -63 -98 -67 -48 -82 -11 -10 -38 -93 -139 -56 -50 -91 -110 -111 -112 -106
-49 -36 -25 -18 -17 -7 -1 0 0 0 -4 0 0 -2 -6 -5 -10 -12 -3 -1 -7 -21 -34 -34 -38 -49 -53 -36 -51 -93 -63 -32 -47 -91 -132 -322 -220 -134 -114 -103 -134 -88 -45
-80 -43 -25 -5 -5 -1 -5 -5 -1 0 0 -6 -10 -10 -19 -36 -30 -33 -31 -28 -24 -55 -36 -37 -34 -28 -31 -34 -27 -32 -24 -21 -75 -126 -178 -320 -277 -140 -114 -119 -106 -76 -113
-87 -59 -38 -3 -9 -15 -1 -3 -10 -1 -8 -34 -37 -35 -39 -33 -34 -37 -51 -54 -49 -40 -46 -48 -36 -46 -47 -48 -32 -23 -19 -21 -90 -140 -196 -399 -273 -166 -110 -100 -93 -73 -167
-76 -83 -64 -60 -45 -41 -36 -6 -21 -34 -25 -33 -40 -44 -36 -32 -42 -46 -53 -53 -53 -48 -37 -36 -31 -28 -37 -41 -48 -45 -27 -41 -117 -194 -242 -363 -257 -194 -117 -84 -62 -81 -65
-90 -86 -78 -64 -81 -59 -63 -53 -54 -34 -31 -30 -28 -33 -46 -41 -40 -43 -50 -37 -34 -41 -39 -44 -35 -25 -23 -26 -103 -113 -59 -80 -143 -223 -216 -226 -233 -180 -150 -112 -68 -31 -11
-115 -93 -72 -60 -68 -64 -53 -62 -49 -40 -31 -23 -22 -39 -53 -39 -48 -60 -51 -30 -33 -47 -52 -32 -33 -30 -15 -50 -111 -127 -69 -89 -119 -192 -205 -178 -154 -175 -140 -105 -77 -70 -58
-102 -101 -63 -70 -55 -57 -56 -59 -45 -45 -31 -27 -33 -37 -37 -37 -53 -60 -35 -27 -36 -43 -40 -31 -34 -18 -20 -70 -108 -104 -109 -103 -123 -194 -203 -178 -134 -124 -134 -173 -128 -87 -63
-86 -92 -83 -53 -45 -46 -60 -55 -52 -51 -43 -39 -40 -36 -35 -36 -49 -42 -27 -24 -45 -37 -39 -36 -37 -45 -28 -43 -84 -122 -123 -120 -148 -124 -105 -123 -115 -126 -95 -124 -169 -104 -69
-109 -94 -101 -58 -49 -43 -63 -74 -83 -61 -53 -52 -34 -34 -36 -30 -41 -40 -30 -33 -38 -43 -43 -42 -49 -59 -60 -49 -33 -73 -81 -92 -120 -105 -88 -90 -95 -103 -93 -128 -142 -145 -122
-113 -116 -113 -89 -64 -57 -79 -74 -59 -50 -44 -48 -42 -47 -37 -33 -30 -27 -31 -36 -46 -37 -54 -60 -57 -66 -52 -72 -37 -46 -72 -94 -100 -122 -117 -120 -132 -147 -168 -159 -158 -148 -171
-102 -126 -129 -106 -82 -93 -76 -91 -81 -52 -56 -39 -39 -44 -38 -35 -28 -25 -32 -31 -49 -41 -58 -58 -61 -48 -61 -80 -28 -36 -14 -27 -71 -89 -131 -136 -129 -139 -145 -149 -168 -149 -131
-119 -116 -137 -134 -121 -106 -98 -104 -113 -72 -71 -54 -44 -39 -30 -30 -25 -23 -25 -37 -56 -71 -41 -58 -62 -71 -34 -80 -108 -43 -23 -27 -64 -80 -97 -105 -110 -97 -85 -118 -144 -147 -124
-131 -118 -122 -138 -127 -104 -109 -92 -104 -42 -33 -42 -45 -32 -34 -33 -21 -14 -25 -37 -49 -62 -65 -72 -74 -81 -80 -39 -84 -126 -134 -121 -33 -41 -40 -55 -65 -52 -69 -68 -96 -114 -115
-140 -118 -131 -148 -138 -97 -110 -94 -90 -44 -33 -27 -42 -43 -40 -36 -25 -18 -26 -35 -42 -49 -71 -54 -19 -74 -69 -49 -83 -90 -121 -99 -89 -35 -34 -24 -24 -25 -34 -50 -67 -79 -105
-142 -142 -129 -138 -133 -118 -108 -96 -69 -48 -33 -31 -36 -38 -27 -26 -18 -25 -19 -27 -38 -39 -77 -58 -55 -40 -41 -36 -58 -76 -34 -18 -12 -14 -17 -24 -31 -27 -25 -33 -32 -43 -68
Wind_Speed
15 5 4 9 12 11 9 8 6 4 5 5 6 4 7 7 12 14 16 17 14 12 15 19 20 20 23 23 25 23 26 25 22 21 18 14 14 15 16 18 24 18 17
11 9 6 4 11 12 9 11 11 6 4 5 8 5 5 7 10 14 16 15 17 16 17 18 18 23 25 27 27 26 26 24 22 22 21 17 8 10 12 18 15 17 16
5 6 11 16 13 13 15 13 13 10 9 9 8 4 4 4 7 11 11 16 18 17 18 18 21 24 27 26 26 26 18 19 21 19 7 11 11 12 12 16 17 17 16
7 5 8 13 17 18 15 10 8 7 8 6 5 4 4 5 4 9 16 18 16 18 17 19 23 25 26 26 26 25 22 21 21 7 12 9 10 11 13 14 16 17 18
7 6 14 25 27 15 10 6 5 6 7 6 5 4 3 4 4 3 14 15 16 18 18 20 22 25 26 26 26 26 25 26 26 19 19 12 11 17 22 23 22 22 18
8 6 9 6 2 16 3 4 7 7 7 8 5 5 3 3 2 3 13 15 16 17 19 19 24 24 26 26 25 24 23 25 25 25 25 25 24 24 24 24 23 22 22
12 8 11 14 7 4 4 4 5 8 8 8 6 5 2 3 6 4 6 14 14 16 15 20 24 25 25 26 25 24 25 25 24 24 24 23 24 23 23 22 22 21 20
20 5 3 3 3 8 7 4 6 10 10 11 8 5 2 3 7 8 6 10 13 14 17 25 25 25 25 25 23 24 24 24 23 23 23 22 23 23 23 21 20 20 18
25 7 3 2 5 10 7 9 10 11 14 13 12 7 2 2 5 6 5 8 11 4 26 25 25 24 24 24 24 24 23 22 22 22 22 21 22 21 20 20 19 18 17
23 20 12 3 1 7 11 19 6 7 10 13 11 7 5 3 3 5 6 8 8 10 21 22 23 23 23 22 22 21 21 21 20 21 21 21 21 20 19 19 18 17 16
23 20 17 13 7 3 4 8 1 19 19 16 7 8 9 8 6 4 4 3 7 13 15 21 22 21 21 20 19 19 19 18 19 19 19 20 20 18 18 18 18 16 13
27 26 23 17 7 4 5 3 7 8 12 15 13 13 10 10 7 6 7 11 14 14 19 21 20 19 19 18 18 17 16 17 18 18 19 20 19 18 18 18 16 15 11
25 26 25 23 22 12 7 5 6 11 14 16 15 13 12 13 12 10 13 12 14 14 19 20 19 18 17 16 16 17 16 17 17 18 18 19 19 18 17 16 16 15 9
26 26 25 22 22 21 16 15 16 16 17 18 16 15 13 14 13 12 13 13 14 15 16 18 18 17 16 16 16 16 17 17 17 18 18 18 17 16 15 14 13 12 8
27 26 25 24 23 22 20 20 19 18 17 16 17 18 17 14 14 14 13 14 14 14 15 16 17 16 16 17 17 17 18 18 18 18 17 16 15 14 12 11 10 8 6
26 27 25 23 23 22 20 21 22 21 18 18 18 18 19 18 17 15 14 14 14 15 16 16 16 16 16 16 17 17 19 18 17 16 15 15 13 12 10 8 6 5 6
25 26 27 27 23 23 22 19 21 20 19 19 19 18 19 20 19 17 15 14 14 15 16 16 15 15 15 18 17 17 18 17 16 14 13 12 11 9 7 5 3 6 8
23 26 27 27 21 24 23 21 21 20 19 19 18 19 18 21 21 19 17 16 15 16 16 15 14 14 16 18 18 17 16 15 13 12 11 10 9 9 9 8 2 7 7
23 24 27 27 28 26 22 22 22 21 21 20 20 20 18 22 22 20 19 17 16 17 16 16 14 13 16 17 17 16 14 13 12 10 9 8 7 7 6 6 6 4 5
21 23 26 28 28 28 22 22 22 22 21 20 21 21 19 21 22 22 21 19 18 19 18 17 16 14 15 17 16 15 13 12 11 9 8 7 6 7 7 6 8 6 6
21 22 26 28 30 29 27 26 25 25 22 22 21 21 18 21 21 22 22 21 20 20 20 19 19 17 15 15 15 13 13 11 11 9 7 6 5 6 4 5 6 7 10
23 22 25 27 29 31 30 27 24 25 24 23 23 22 20 23 24 24 24 23 22 22 22 21 20 19 18 16 14 13 12 10 10 8 6 6 6 5 4 6 8 9 11
25 25 25 26 26 28 30 27 24 22 22 24 23 23 23 24 25 25 24 24 23 23 24 23 21 20 20 17 11 14 12 11 9 10 12 11 9 9 9 7 9 10 11
24 25 25 26 27 29 30 30 31 29 26 26 27 24 24 25 24 24 24 23 22 22 23 24 23 22 21 19 19 13 13 13 9 10 9 11 9 14 15 11 12 11 12
18 22 23 25 26 27 28 30 32 31 29 24 26 26 24 23 23 24 23 23 21 22 23 24 22 6 17 22 21 10 11 9 9 9 11 10 5 17 19 14 13 12 11
15 16 18 22 26 26 26 26 32 32 31 27 25 24 24 22 23 24 24 23 21 20 19 13 11 6 17 20 16 8 9 12 10 9 11 14 10 4 19 15 13 12 12
Wind_Direction
238 318 21 255 240 246 264 295 296 328 344 16 27 324 34 23 40 46 50 55 40 27 40 55 56 55 70 64 103 123 96 68 55 47 36 26 26 30 34 43 91 46 38
71 56 28 265 237 241 267 247 241 272 308 321 242 288 355 17 31 47 53 47 55 49 46 49 50 68 76 84 98 109 105 76 53 55 48 36 354 6 17 41 25 41 34
341 307 242 223 234 236 230 234 229 241 237 233 239 294 314 323 5 39 35 54 60 50 52 52 57 70 87 81 77 79 38 43 51 44 184 183 8 15 9 31 35 38 34
20 13 260 230 226 221 223 242 259 255 242 251 267 283 318 259 301 31 61 65 53 54 51 55 66 75 80 80 75 75 56 51 50 203 176 198 2 8 13 20 31 33 43
21 34 216 179 182 227 245 283 276 258 255 256 262 283 298 263 280 334 57 57 55 59 60 60 67 75 84 88 88 77 69 87 89 142 142 175 7 35 65 78 72 73 129
43 43 231 238 331 99 15 303 246 253 262 243 250 252 269 266 293 269 54 58 57 58 63 59 80 75 92 92 98 108 113 98 107 101 106 94 82 103 101 101 104 105 106
59 52 65 76 60 41 5 317 259 244 253 247 238 234 279 255 30 12 29 50 50 57 52 66 81 87 80 89 85 83 88 102 106 108 102 113 102 110 109 109 108 104 105
82 51 53 37 16 50 30 306 237 233 241 232 230 225 256 18 32 32 13 30 44 50 62 95 95 90 90 86 63 80 89 105 113 112 113 117 108 111 107 113 114 110 108
98 55 241 334 32 56 38 36 210 228 214 216 205 210 239 275 14 13 357 19 35 338 134 104 116 113 99 85 79 77 103 113 117 119 124 124 118 122 121 118 114 111 110
157 180 213 236 333 57 60 81 75 234 231 214 207 213 217 244 344 352 6 16 22 204 161 148 135 122 107 105 102 116 122 122 131 127 127 126 125 123 121 119 117 115 120
164 179 194 209 237 289 33 63 223 194 197 200 221 213 209 220 240 289 340 327 224 197 186 155 140 128 124 119 132 138 139 144 139 135 130 124 126 127 125 119 115 121 119
138 159 175 199 255 302 280 280 243 241 222 202 205 205 214 214 232 246 227 204 192 192 167 147 145 144 139 153 154 152 157 146 141 137 131 123 127 126 124 119 125 116 110
141 162 174 178 183 74 266 295 273 235 214 205 208 213 215 208 210 219 205 208 193 194 165 147 149 157 160 167 165 161 156 148 141 131 121 120 125 125 124 120 120 126 115
174 168 150 196 195 198 215 220 216 213 209 204 211 213 220 210 218 218 214 213 202 194 182 167 163 166 166 165 167 157 151 145 135 125 116 117 121 124 128 123 124 122 132
174 160 190 197 194 198 205 203 205 206 210 214 209 205 205 222 223 222 223 215 208 207 194 182 172 168 163 153 151 152 143 134 128 120 114 115 116 122 119 117 112 129 158
181 179 204 207 208 209 213 208 203 204 212 215 214 214 211 214 213 220 224 220 217 216 196 184 180 173 169 166 154 143 135 127 123 117 113 110 114 121 110 103 114 146 195
161 167 194 178 214 214 215 222 214 214 219 221 221 221 219 212 211 217 224 230 228 218 195 189 187 182 180 161 155 147 131 126 124 120 115 108 101 98 85 95 89 206 224
148 161 181 191 227 212 221 224 225 227 228 227 228 228 231 215 211 221 223 230 224 220 210 204 206 194 174 165 159 142 127 127 131 121 113 102 101 71 70 66 115 224 216
154 157 168 180 185 210 224 230 230 230 226 229 230 230 240 218 219 221 217 226 223 221 217 214 212 212 191 172 161 148 137 135 135 118 110 101 95 87 86 80 84 127 167
149 156 168 177 187 197 226 230 229 229 235 238 235 233 245 227 225 222 220 224 225 225 224 223 222 236 216 184 171 166 167 152 162 134 124 124 118 74 65 86 77 95 129
155 155 167 174 189 197 208 214 223 226 236 238 244 242 253 236 235 226 227 228 230 226 228 228 228 218 218 204 171 170 170 160 176 173 147 158 133 104 163 164 104 106 95
164 159 165 171 176 191 199 216 231 233 240 242 245 248 256 241 237 238 233 233 231 230 229 232 224 205 208 225 177 178 188 159 145 152 119 122 143 134 153 132 107 92 80
171 168 166 167 170 178 199 226 236 244 245 244 250 252 249 242 239 242 240 242 243 238 233 233 212 205 215 207 138 188 185 177 196 105 85 89 95 89 82 99 90 80 89
170 169 171 172 177 182 186 222 211 221 235 236 230 244 249 241 242 246 247 250 259 260 253 247 245 218 222 218 221 190 191 203 178 194 87 72 84 53 46 67 71 79 81
156 163 167 171 174 178 179 192 212 209 230 249 240 245 254 255 255 252 254 257 269 265 254 245 254 28 306 259 260 159 172 147 137 163 215 221 187 28 27 50 64 72 79
153 156 161 166 177 178 177 178 200 219 230 244 248 251 252 262 259 260 261 263 270 276 284 313 330 55 312 291 330 84 133 185 182 181 212 242 236 72 11 43 61 63 64